Terug naar catalogus

DELTA 1 DEB

LostUNKNOWN
NORAD 28266·DEBRIS·🇺🇸 United States

Gelanceerd Jul 4, 1968 vanaf Vandenberg Space Force Base

Loading…

Volgende Passages (komende 24 uur)

TLE

VerouderdSource: Space-Track

Epoch: Jul 26, 2026, 12:58 UTC

1 28266U 68055L   26207.54032089  .00001754  00000-0  52719-2 0  9999
2 28266 120.7335  52.7403 1661159 165.9462 199.4062 10.85345747524916

Volg DELTA 1 DEB in realtime met AllMySat

Download on the App Store